Time,TemperatureF,DewpointF,PressureIn,WindDirection,WindDirectionDegrees,WindSpeedMPH,WindSpeedGustMPH,Humidity,HourlyPrecipIn,Conditions,Clouds,dailyrainin,SoftwareType,DateUTC
2013-05-02 00:05:00,53.7,47.0,0.00,NE,41,0.0,-999.0,77,-99.99,,,0.00,weatherlink.com 1.10,2013-05-02 04:05:00,
2013-05-02 00:20:00,53.4,47.0,0.00,East,80,0.0,-999.0,78,-99.99,,,0.00,weatherlink.com 1.10,2013-05-02 04:20:00,
2013-05-02 00:35:00,53.0,47.0,0.00,SE,134,0.0,-999.0,79,-99.99,,,0.00,weatherlink.com 1.10,2013-05-02 04:35:00,
2013-05-02 00:50:00,52.3,46.0,0.00,SE,134,0.0,-999.0,80,-99.99,,,0.00,weatherlink.com 1.10,2013-05-02 04:50:00,
2013-05-02 01:05:00,51.4,46.0,0.00,SE,134,0.0,-999.0,81,-99.99,,,0.00,weatherlink.com 1.10,2013-05-02 05:05:00,
2013-05-02 01:20:00,50.6,46.0,0.00,SE,134,0.0,-999.0,83,-99.99,,,0.00,weatherlink.com 1.10,2013-05-02 05:20:00,
2013-05-02 01:35:00,49.9,46.0,0.00,SE,134,0.0,-999.0,85,-99.99,,,0.00,weatherlink.com 1.10,2013-05-02 05:35:00,
2013-05-02 01:50:00,49.2,45.0,0.00,SE,134,0.0,-999.0,86,-99.99,,,0.00,weatherlink.com 1.10,2013-05-02 05:50:00,
2013-05-02 02:05:00,48.8,45.0,0.00,SE,134,0.0,-999.0,87,-99.99,,,0.00,weatherlink.com 1.10,2013-05-02 06:05:00,
2013-05-02 02:20:00,48.3,45.0,0.00,SE,134,0.0,-999.0,87,-99.99,,,0.00,weatherlink.com 1.10,2013-05-02 06:20:00,
2013-05-02 02:35:00,47.9,45.0,0.00,SE,133,0.0,-999.0,88,-99.99,,,0.00,weatherlink.com 1.10,2013-05-02 06:35:00,
2013-05-02 02:50:00,47.6,45.0,0.00,SE,133,0.0,-999.0,89,-99.99,,,0.00,weatherlink.com 1.10,2013-05-02 06:50:00,
2013-05-02 03:05:00,47.2,45.0,0.00,SE,133,0.0,-999.0,90,-99.99,,,0.00,weatherlink.com 1.10,2013-05-02 07:05:00,
2013-05-02 03:20:00,47.4,45.0,0.00,SE,133,0.0,-999.0,91,-99.99,,,0.00,weatherlink.com 1.10,2013-05-02 07:20:00,
2013-05-02 03:35:00,48.0,46.0,0.00,SE,134,0.0,-999.0,91,-99.99,,,0.00,weatherlink.com 1.10,2013-05-02 07:35:00,
2013-05-02 03:50:00,47.9,46.0,0.00,SE,134,0.0,-999.0,91,-99.99,,,0.00,weatherlink.com 1.10,2013-05-02 07:50:00,
2013-05-02 04:05:00,47.8,45.0,0.00,SE,134,0.0,-999.0,91,-99.99,,,0.00,weatherlink.com 1.10,2013-05-02 08:05:00,
2013-05-02 04:20:00,48.0,46.0,0.00,ESE,119,0.0,-999.0,92,-99.99,,,0.00,weatherlink.com 1.10,2013-05-02 08:20:00,
2013-05-02 04:35:00,48.1,46.0,0.00,ESE,119,0.0,-999.0,91,-99.99,,,0.00,weatherlink.com 1.10,2013-05-02 08:35:00,
2013-05-02 04:50:00,47.5,45.0,0.00,ESE,119,0.0,-999.0,91,-99.99,,,0.00,weatherlink.com 1.10,2013-05-02 08:50:00,
2013-05-02 05:05:00,47.2,45.0,0.00,ESE,119,0.0,-999.0,92,-99.99,,,0.00,weatherlink.com 1.10,2013-05-02 09:05:00,
2013-05-02 05:20:00,47.7,46.0,0.00,ESE,107,0.0,-999.0,92,-99.99,,,0.00,weatherlink.com 1.10,2013-05-02 09:20:00,
2013-05-02 05:35:00,47.3,45.0,0.00,ESE,107,0.0,-999.0,92,-99.99,,,0.00,weatherlink.com 1.10,2013-05-02 09:35:00,
2013-05-02 05:50:00,46.7,44.0,0.00,ESE,107,0.0,-999.0,91,-99.99,,,0.00,weatherlink.com 1.10,2013-05-02 09:50:00,
2013-05-02 06:05:00,46.1,44.0,0.00,ESE,107,0.0,-999.0,92,-99.99,,,0.00,weatherlink.com 1.10,2013-05-02 10:05:00,
2013-05-02 06:20:00,46.1,44.0,0.00,ESE,107,0.0,-999.0,93,-99.99,,,0.00,weatherlink.com 1.10,2013-05-02 10:20:00,
2013-05-02 06:35:00,46.5,45.0,0.00,SSE,153,0.0,-999.0,94,-99.99,,,0.00,weatherlink.com 1.10,2013-05-02 10:35:00,
2013-05-02 06:50:00,47.6,46.0,0.00,ESE,109,0.0,-999.0,93,-99.99,,,0.00,weatherlink.com 1.10,2013-05-02 10:50:00,
2013-05-02 07:05:00,48.1,46.0,0.00,NE,50,0.0,-999.0,93,-99.99,,,0.00,weatherlink.com 1.10,2013-05-02 11:05:00,
2013-05-02 07:20:00,48.5,46.0,0.00,North,9,0.0,-999.0,92,-99.99,,,0.00,weatherlink.com 1.10,2013-05-02 11:20:00,
2013-05-02 07:35:00,48.7,46.0,0.00,SSE,157,0.0,-999.0,90,-99.99,,,0.00,weatherlink.com 1.10,2013-05-02 11:35:00,
2013-05-02 07:50:00,48.8,46.0,0.00,SE,140,0.0,-999.0,89,-99.99,,,0.00,weatherlink.com 1.10,2013-05-02 11:50:00,
2013-05-02 08:05:00,49.1,46.0,0.00,North,349,0.0,-999.0,88,-99.99,,,0.00,weatherlink.com 1.10,2013-05-02 12:05:00,
2013-05-02 08:20:00,49.4,46.0,0.00,SE,125,0.0,-999.0,87,-99.99,,,0.00,weatherlink.com 1.10,2013-05-02 12:20:00,
2013-05-02 08:35:00,49.6,46.0,0.00,NNW,340,1.0,-999.0,86,-99.99,,,0.00,weatherlink.com 1.10,2013-05-02 12:35:00,
2013-05-02 08:50:00,50.0,45.0,0.00,ESE,119,4.0,-999.0,84,-99.99,,,0.00,weatherlink.com 1.10,2013-05-02 12:50:00,
2013-05-02 09:06:00,50.8,46.0,0.00,SSE,155,0.0,-999.0,84,-99.99,,,0.00,weatherlink.com 1.10,2013-05-02 13:06:00,
2013-05-02 09:21:00,52.1,47.0,0.00,NE,36,0.0,-999.0,83,-99.99,,,0.00,weatherlink.com 1.10,2013-05-02 13:21:00,
2013-05-02 09:36:00,52.9,48.0,0.00,ESE,112,0.0,-999.0,82,-99.99,,,0.00,weatherlink.com 1.10,2013-05-02 13:36:00,
2013-05-02 09:51:00,54.0,48.0,0.00,SSE,153,0.0,-999.0,80,-99.99,,,0.00,weatherlink.com 1.10,2013-05-02 13:51:00,
2013-05-02 10:06:00,55.4,48.0,0.00,SE,138,0.0,-999.0,77,-99.99,,,0.00,weatherlink.com 1.10,2013-05-02 14:06:00,
2013-05-02 10:21:00,57.8,50.0,0.00,ESE,123,1.0,-999.0,75,-99.99,,,0.00,weatherlink.com 1.10,2013-05-02 14:21:00,
2013-05-02 10:36:00,59.0,50.0,0.00,SE,146,0.0,-999.0,73,-99.99,,,0.00,weatherlink.com 1.10,2013-05-02 14:36:00,
2013-05-02 10:51:00,60.5,51.0,0.00,NNW,342,1.0,-999.0,70,-99.99,,,0.00,weatherlink.com 1.10,2013-05-02 14:51:00,
2013-05-02 11:06:00,60.7,50.0,0.00,NE,55,0.0,-999.0,67,-99.99,,,0.00,weatherlink.com 1.10,2013-05-02 15:06:00,
2013-05-02 11:21:00,60.0,50.0,0.00,ESE,120,0.0,-999.0,70,-99.99,,,0.00,weatherlink.com 1.10,2013-05-02 15:21:00,
2013-05-02 11:36:00,60.5,51.0,0.00,SE,132,0.0,-999.0,70,-99.99,,,0.00,weatherlink.com 1.10,2013-05-02 15:36:00,
2013-05-02 11:51:00,61.3,51.0,0.00,North,355,1.0,-999.0,69,-99.99,,,0.00,weatherlink.com 1.10,2013-05-02 15:51:00,
2013-05-02 12:06:00,62.0,51.0,0.00,East,86,0.0,-999.0,68,-99.99,,,0.00,weatherlink.com 1.10,2013-05-02 16:06:00,
2013-05-02 12:21:00,62.1,51.0,0.00,North,9,2.0,-999.0,67,-99.99,,,0.00,weatherlink.com 1.10,2013-05-02 16:21:00,
2013-05-02 12:36:00,63.1,52.0,0.00,ENE,58,0.0,-999.0,67,-99.99,,,0.00,weatherlink.com 1.10,2013-05-02 16:36:00,
2013-05-02 12:51:00,63.5,51.0,0.00,SE,136,0.0,-999.0,64,-99.99,,,0.00,weatherlink.com 1.10,2013-05-02 16:51:00,
2013-05-02 13:06:00,63.7,52.0,0.00,West,267,0.0,-999.0,65,-99.99,,,0.00,weatherlink.com 1.10,2013-05-02 17:06:00,
2013-05-02 13:21:00,64.1,52.0,0.00,North,360,3.0,-999.0,65,-99.99,,,0.00,weatherlink.com 1.10,2013-05-02 17:21:00,
2013-05-02 13:36:00,65.0,52.0,0.00,NE,44,3.0,-999.0,63,-99.99,,,0.00,weatherlink.com 1.10,2013-05-02 17:36:00,
2013-05-02 13:51:00,65.2,52.0,0.00,WNW,292,2.0,-999.0,63,-99.99,,,0.00,weatherlink.com 1.10,2013-05-02 17:51:00,
2013-05-02 14:06:00,65.7,52.0,0.00,SSE,153,4.0,-999.0,61,-99.99,,,0.00,weatherlink.com 1.10,2013-05-02 18:06:00,
2013-05-02 14:21:00,65.9,53.0,0.00,ESE,123,0.0,-999.0,63,-99.99,,,0.00,weatherlink.com 1.10,2013-05-02 18:21:00,
2013-05-02 14:36:00,66.3,53.0,0.00,ESE,117,0.0,-999.0,62,-99.99,,,0.00,weatherlink.com 1.10,2013-05-02 18:36:00,
2013-05-02 14:51:00,66.2,51.0,0.00,ESE,107,2.0,-999.0,59,-99.99,,,0.00,weatherlink.com 1.10,2013-05-02 18:51:00,
2013-05-02 15:06:00,65.8,51.0,0.00,SE,133,1.0,-999.0,60,-99.99,,,0.00,weatherlink.com 1.10,2013-05-02 19:06:00,
2013-05-02 15:21:00,66.0,52.0,0.00,SSE,156,1.0,-999.0,61,-99.99,,,0.00,weatherlink.com 1.10,2013-05-02 19:21:00,
2013-05-02 15:36:00,66.5,52.0,0.00,NE,42,0.0,-999.0,60,-99.99,,,0.00,weatherlink.com 1.10,2013-05-02 19:36:00,
2013-05-02 15:51:00,67.4,53.0,0.00,SSE,148,1.0,-999.0,60,-99.99,,,0.00,weatherlink.com 1.10,2013-05-02 19:51:00,
2013-05-02 16:06:00,67.7,52.0,0.00,SE,140,1.0,-999.0,58,-99.99,,,0.00,weatherlink.com 1.10,2013-05-02 20:06:00,
2013-05-02 16:21:00,67.7,53.0,0.00,South,181,2.0,-999.0,60,-99.99,,,0.00,weatherlink.com 1.10,2013-05-02 20:21:00,
2013-05-02 16:36:00,67.8,53.0,0.00,SE,145,0.0,-999.0,59,-99.99,,,0.00,weatherlink.com 1.10,2013-05-02 20:36:00,
2013-05-02 16:51:00,68.3,53.0,0.00,SSE,156,4.0,-999.0,58,-99.99,,,0.00,weatherlink.com 1.10,2013-05-02 20:51:00,
2013-05-02 17:07:00,67.5,52.0,0.00,SSE,153,0.0,-999.0,59,-99.99,,,0.00,weatherlink.com 1.10,2013-05-02 21:07:00,
2013-05-02 17:21:00,67.5,52.0,0.00,ESE,110,0.0,-999.0,59,-99.99,,,0.00,weatherlink.com 1.10,2013-05-02 21:21:00,
2013-05-02 17:36:00,67.6,53.0,0.00,SE,137,0.0,-999.0,59,-99.99,,,0.00,weatherlink.com 1.10,2013-05-02 21:36:00,
2013-05-02 17:51:00,67.1,52.0,0.00,ESE,119,0.0,-999.0,59,-99.99,,,0.00,weatherlink.com 1.10,2013-05-02 21:51:00,
2013-05-02 18:06:00,66.7,52.0,0.00,SE,137,2.0,-999.0,60,-99.99,,,0.00,weatherlink.com 1.10,2013-05-02 22:06:00,
2013-05-02 18:21:00,66.5,50.0,0.00,ENE,66,0.0,-999.0,56,-99.99,,,0.00,weatherlink.com 1.10,2013-05-02 22:21:00,
2013-05-02 18:36:00,66.3,50.0,0.00,SE,146,2.0,-999.0,56,-99.99,,,0.00,weatherlink.com 1.10,2013-05-02 22:36:00,
2013-05-02 18:51:00,65.9,49.0,0.00,SE,146,0.0,-999.0,55,-99.99,,,0.00,weatherlink.com 1.10,2013-05-02 22:51:00,
2013-05-02 19:06:00,65.4,49.0,0.00,ESE,114,2.0,-999.0,55,-99.99,,,0.00,weatherlink.com 1.10,2013-05-02 23:06:00,
2013-05-02 19:21:00,64.9,48.0,0.00,SE,142,0.0,-999.0,55,-99.99,,,0.00,weatherlink.com 1.10,2013-05-02 23:21:00,
2013-05-02 19:36:00,64.3,48.0,0.00,ESE,105,0.0,-999.0,55,-99.99,,,0.00,weatherlink.com 1.10,2013-05-02 23:36:00,
2013-05-02 19:51:00,63.5,47.0,0.00,ESE,117,0.0,-999.0,56,-99.99,,,0.00,weatherlink.com 1.10,2013-05-02 23:51:00,
2013-05-02 20:06:00,62.8,47.0,0.00,ESE,105,0.0,-999.0,57,-99.99,,,0.00,weatherlink.com 1.10,2013-05-03 00:06:00,
2013-05-02 20:21:00,61.9,48.0,0.00,ESE,105,0.0,-999.0,60,-99.99,,,0.00,weatherlink.com 1.10,2013-05-03 00:21:00,
2013-05-02 20:36:00,60.6,47.0,0.00,ESE,105,0.0,-999.0,62,-99.99,,,0.00,weatherlink.com 1.10,2013-05-03 00:36:00,
2013-05-02 20:51:00,59.1,47.0,0.00,ESE,105,0.0,-999.0,65,-99.99,,,0.00,weatherlink.com 1.10,2013-05-03 00:51:00,
2013-05-02 21:06:00,58.1,47.0,0.00,ESE,105,0.0,-999.0,67,-99.99,,,0.00,weatherlink.com 1.10,2013-05-03 01:06:00,
2013-05-02 21:21:00,57.1,47.0,0.00,ESE,105,0.0,-999.0,69,-99.99,,,0.00,weatherlink.com 1.10,2013-05-03 01:21:00,
2013-05-02 21:36:00,56.2,47.0,0.00,ESE,105,0.0,-999.0,71,-99.99,,,0.00,weatherlink.com 1.10,2013-05-03 01:36:00,
2013-05-02 21:51:00,55.3,47.0,0.00,ESE,105,0.0,-999.0,73,-99.99,,,0.00,weatherlink.com 1.10,2013-05-03 01:51:00,
2013-05-02 22:07:00,54.6,47.0,0.00,ESE,105,0.0,-999.0,75,-99.99,,,0.00,weatherlink.com 1.10,2013-05-03 02:07:00,
2013-05-02 22:22:00,54.0,47.0,0.00,ESE,105,0.0,-999.0,77,-99.99,,,0.00,weatherlink.com 1.10,2013-05-03 02:22:00,
2013-05-02 22:37:00,53.4,46.0,0.00,ESE,105,0.0,-999.0,77,-99.99,,,0.00,weatherlink.com 1.10,2013-05-03 02:37:00,
2013-05-02 22:52:00,53.0,46.0,0.00,ESE,105,0.0,-999.0,78,-99.99,,,0.00,weatherlink.com 1.10,2013-05-03 02:52:00,
2013-05-02 23:07:00,52.6,47.0,0.00,ESE,105,0.0,-999.0,80,-99.99,,,0.00,weatherlink.com 1.10,2013-05-03 03:07:00,
2013-05-02 23:22:00,52.2,47.0,0.00,ESE,105,0.0,-999.0,81,-99.99,,,0.00,weatherlink.com 1.10,2013-05-03 03:22:00,
2013-05-02 23:37:00,51.8,47.0,0.00,ESE,105,0.0,-999.0,82,-99.99,,,0.00,weatherlink.com 1.10,2013-05-03 03:37:00,
2013-05-02 23:52:00,51.5,46.0,0.00,ESE,105,0.0,-999.0,82,-99.99,,,0.00,weatherlink.com 1.10,2013-05-03 03:52:00,